Location: Poughquag
(41.6090°N, 73.6820°W)
Time: 02:53:13
(UTC-04:00)

Transit 4A - Pass Details

Date: 06 June 2020
Orbit: 866 x 978 km, 66.8° (Epoch: 06 July)

Event Time Altitude Azimuth Distance (km) Brightness Sun altitude
Rises 07:55:18 0° 338° (NNW) 3,557 10.8 26.1°
Reaches altitude 10° 07:58:50 10° 359° (N) 2,635 10.4 26.8°
Maximum altitude 08:02:42 17° 38° (NE) 2,194 10.7 27.5°
Drops below altitude 10° 08:06:37 10° 77° (ENE) 2,677 12.0 28.2°
Sets 08:10:12 0° 97° (E) 3,639 12.1 28.9°
